Regional Weather Roundup
Issued by NWS

Home | Current Version | Previous Version | Text Only | Print | Product List | Glossary Off
Versions: 1 2 3 4 5 6 7 8 9 10 11 12 13 14 15 16 17 18 19 20 21 22 23 24 25 26 27 28 29 30 31 32 33 34 35 36 37 38 39 40 41 42 43 44 45 46 47 48 49 50

000
ASUS43 KDMX 180407
RWRIA

WEATHER ROUNDUP FOR IOWA
NATIONAL WEATHER SERVICE DES MOINES IA
1100 PM CDT FRI APR 17 2015

NOTE: "FAIR" INDICATES FEW OR NO CLOUDS BELOW 12,000 FEET WITH NO
SIGNIFICANT WEATHER AND/OR OBSTRUCTIONS TO VISIBILITY.

* - THESE STATIONS ARE NOT NWS STATIONS...THUS NOT UNDER NWS
QUALITY CONTROL.  THEY ALSO DO NOT REPORT WEATHER SUCH
AS PRECIPITATION OR FOG.

IAZ001>003-012>014-020>022-031>034-043>046-180500-
   NORTHWEST IOWA

CITY           SKY/WX    TMP DP  RH WIND       PRES   REMARKS
CARROLL *      CLOUDY    61  45  55 CALM      30.02S
CHEROKEE *     PTCLDY    57  50  77 CALM      30.03R
DENISON *      CLOUDY    64  48  55 CALM      30.00S
LE MARS *      CLOUDY    57  48  72 CALM      30.03S
ORANGE CITY *  CLEAR     64  45  48 NE3       30.04S
SHELDON *      CLEAR     57  43  58 NE7       30.03S
SIOUX CITY     CLOUDY    65  46  50 W6        30.02R
SPENCER        MOCLDY    57  42  57 CALM      30.04S
STORM LAKE *   CLEAR     64  43  45 NE6       30.04S
$$

IAZ055>058-069>071-079>083-090>094-180500-
   SOUTHWEST IOWA

CITY           SKY/WX    TMP DP  RH WIND       PRES   REMARKS
ATLANTIC *     CLOUDY    61  55  82 N3        30.01S
AUDUBON *      CLEAR     57  52  82 CALM      30.02F
CLARINDA *     CLOUDY    68  54  60 E5        30.01S
COUNCIL BLFS * CLOUDY    66  55  68 S5        30.00S
CRESTON *      CLEAR     63  54  72 E7        30.02R
HARLAN  *      PTCLDY    61  55  82 CALM      30.04F
LAMONI         CLOUDY    68  55  63 NE6       30.00S
RED OAK *      CLOUDY    66  55  68 NE3       30.00S
SHENANDOAH *   CLOUDY    64  55  72 CALM      29.99F
$$

IAZ047>049-059>061-072>074-084-180500-
   CENTRAL IOWA

CITY           SKY/WX    TMP DP  RH WIND       PRES   REMARKS
AMES           PTCLDY    62  50  64 CALM      30.01S
ANKENY *       CLEAR     59  54  82 CALM      30.01S
CHARITON *     MOCLDY    66  52  59 E5        30.00F
DES MOINES     MOCLDY    69  52  54 CALM      30.00F
GRINNELL*      PTCLDY    64  50  59 CALM      30.02S
KNOXVILLE *    CLEAR     66  50  55 NE6       29.99F
MARSHALLTOWN   PTCLDY    60  49  66 NW6       30.01R
PELLA *        MOCLDY    64  54  68 CALM      30.01F
PERRY *          N/A     61  48  63 CALM      30.01S
$$

IAZ004>006-015-016-023>025-035-036-180500-
   NORTH CENTRAL IOWA

CITY           SKY/WX    TMP DP  RH WIND       PRES   REMARKS
ALGONA *       MOCLDY    63  45  51 NE5       30.03F
CLARION *      MOCLDY    61  46  59 NE7       30.02F
ESTHERVILLE    MOCLDY    57  37  47 N9        30.03S
FORT DODGE *   PTCLDY    61  45  55 NE6       30.03S
MASON CITY     PTCLDY    59  46  62 NW3       30.04S
FOREST CITY *  CLEAR     52  46  82 CALM      30.03S
IOWA FALLS *   CLOUDY    64  45  48 CALM      30.03F
$$

IAZ007>011-017>019-026>030-037>042-050>054-066-180500-
   NORTHEAST IOWA

CITY           SKY/WX    TMP DP  RH WIND       PRES   REMARKS
CEDAR RAPIDS   CLEAR     63  50  62 CALM      30.00S
CHARLES CITY * PTCLDY    64  45  48 NE6       30.03S
CLINTON *      CLEAR     57  45  62 CALM      30.03S
DECORAH *      PTCLDY    63  45  51 CALM      30.01F
DUBUQUE        PTCLDY    57  47  69 CALM      30.02S
MONTICELLO *   MOCLDY    61  55  82 CALM      30.01R
OELWEIN *      CLEAR     63  46  55 NE5       30.03S
WATERLOO       MOCLDY    63  47  55 CALM      30.01S
$$

IAZ064-065-067-068-078-180500-
   EAST CENTRAL IOWA

CITY           SKY/WX    TMP DP  RH WIND       PRES   REMARKS
DAVENPORT      CLEAR     60  46  59 CALM      30.01F
IOWA CITY      CLEAR     59  50  72 CALM      30.01S
MT. PLEASANT * CLEAR     63  50  63 E3        30.00S
MUSCATINE *    PTCLDY    59  50  72 CALM      30.00S
QUAD CITIES    CLEAR     57  48  72 CALM      30.00S
$$

IAZ062-063-075>077-085>089-095>099-180500-
   SOUTHEAST IOWA

CITY           SKY/WX    TMP DP  RH WIND       PRES   REMARKS
BURLINGTON     PTCLDY    64  54  69 N3        30.00S
FAIRFIELD *    CLEAR     61  50  67 CALM      30.01S
FORT MADISON * CLEAR     64  54  68 CALM      30.01S
KEOKUK *       CLEAR     66  54  63 CALM      30.00R
OSKALOOSA *      N/A     63  48  59 NE6       30.01S
CENTERVILLE *  PTCLDY    66  55  68 NE5       30.02S
OTTUMWA        PTCLDY    63  50  62 NE6       30.00S
WASHINGTON *   CLEAR     63  52  67 CALM      30.01R
$$

ABBREVIATIONS USED IN REMARKS
   TC - TEMPERATURES IN CELSIUS
  WCI - WIND CHILL INDEX
   HX - HEAT INDEX
  VSB - VISIBILITY
$$




USA.gov is the U.S. government's official web portal to all federal, state and local government web resources and services.